Location: Peralejo
(40.5415°N, 4.1259°W)
Time: 10:54:03
(UTC+00:00)

SJ 16-02 - Visible Passes

Search period start: 17 July 2024 00:00
Search period end: 27 July 2024 00:00
Orbit: 593 x 606 km, 75.0° (Epoch: 17 July)

Date Brightness Start Highest point End Pass type
(mag) Time Alt. Az. Time Alt. Az. Time Alt. Az.
17 Jul 4.3 00:50:49 10° NE 00:51:35 10° NE 00:52:22 10° ENE visible
17 Jul 1.2 02:26:07 10° NNW 02:30:30 79° WSW 02:31:11 62° S visible
18 Jul 3.7 01:00:13 10° NNE 01:03:07 17° ENE 01:04:49 14° E visible
18 Jul 1.7 02:37:31 10° NNW 02:41:31 43° W 02:41:31 43° W visible
19 Jul 2.9 01:10:47 10° N 01:14:34 28° ENE 01:15:15 27° E visible
19 Jul 2.7 02:49:12 10° NW 02:51:56 23° W 02:51:56 23° W visible
20 Jul 2.1 01:21:41 10° N 01:25:44 47° ENE 01:25:44 47° ENE visible
20 Jul 3.5 03:01:27 10° WNW 03:02:27 13° WNW 03:02:27 13° WNW visible
21 Jul 1.8 01:32:48 10° NNW 01:36:18 56° N 01:36:18 56° N visible
22 Jul 3.8 00:07:16 10° NNE 00:09:43 14° ENE 00:10:12 14° ENE visible
22 Jul 2.4 01:44:07 10° NNW 01:46:54 35° NW 01:46:54 35° NW visible
23 Jul 3.2 00:17:37 10° N 00:20:51 23° NE 00:20:51 23° NE visible
23 Jul 3.2 01:55:40 10° NW 01:57:34 21° WNW 01:57:34 21° WNW visible
24 Jul 2.8 00:28:25 10° N 00:31:32 34° NE 00:31:32 34° NE visible
24 Jul 3.7 02:07:39 10° NW 02:08:15 12° WNW 02:08:15 12° WNW visible
25 Jul 2.6 00:39:27 10° NNW 00:42:15 38° N 00:42:15 38° N visible
25 Jul 3.9 23:14:26 10° NNE 23:16:12 12° ENE 23:16:18 12° ENE visible
26 Jul 2.9 00:50:40 10° NNW 00:53:02 31° NNW 00:53:02 31° NNW visible
26 Jul 3.4 23:24:27 10° NNE 23:27:05 19° NE 23:27:05 19° NE visible
